Satellite: RS-12/13
Catalog number: 21089
Epoch time:      103119.86519448
Element set:     516 
Inclination:       82.9193 deg
RA of node:       129.2282 deg
Eccentricity:    0.0030912
Arg of perigee:    89.6130 deg
Mean anomaly:     270.8567 deg
Mean motion:   13.74411595 rev/day
Decay rate:    6.7000E-007 rev/day^2
Epoch rev:           61344
Checksum:              320

Satellite: ASTRA 1B
Catalog number: 21139
Epoch time:      103108.00000000
Element set:     168 
Inclination:        0.0122 deg
RA of node:       319.8851 deg
Eccentricity:    0.0002995
Arg of perigee:    65.1991 deg
Mean anomaly:     199.7843 deg
Mean motion:    1.00273184 rev/day
Decay rate:    1.1399E-006 rev/day^2
Epoch rev:            3277
Checksum:              264

Satellite: METEOSAT 5 (MO
Catalog number: 21140
Epoch time:      103119.99443868
Element set:     818 
Inclination:        5.7898 deg
RA of node:        69.4366 deg
Eccentricity:    0.0001068
Arg of perigee:    28.2835 deg
Mean anomaly:     180.6215 deg
Mean motion:    1.00273999 rev/day
Decay rate:    2.4999E-007 rev/day^2
Epoch rev:            4675
Checksum:              345

Satellite: NOAA-12
Catalog number: 21263
Epoch time:      103120.53617817
Element set:     62 
Inclination:       98.6350 deg
RA of node:       109.0125 deg
Eccentricity:    0.0012545
Arg of perigee:   170.2510 deg
Mean anomaly:     189.8915 deg
Mean motion:   14.25131522 rev/day
Decay rate:    3.4600E-006 rev/day^2
Epoch rev:           62132
Checksum:              260

Satellite: UO-22
Catalog number: 21575
Epoch time:      103120.21416901
Element set:     786 
Inclination:       98.1487 deg
RA of node:       108.8195 deg
Eccentricity:    0.0006612
Arg of perigee:   286.3783 deg
Mean anomaly:      73.6680 deg
Mean motion:   14.39206454 rev/day
Decay rate:    3.7100E-006 rev/day^2
Epoch rev:           61844
Checksum:              314

Satellite: MET-3/5
Catalog number: 21655
Epoch time:      103120.55540818
Element set:     518 
Inclination:       82.5584 deg
RA of node:       348.7256 deg
Eccentricity:    0.0014347
Arg of perigee:    24.1869 deg
Mean anomaly:     335.9923 deg
Mean motion:   13.16983023 rev/day
Decay rate:    5.1000E-007 rev/day^2
Epoch rev:           56282
Checksum:              314

Satellite: UARS
Catalog number: 21701
Epoch time:      103119.66898081
Element set:     882 
Inclination:       56.9798 deg
RA of node:       108.2863 deg
Eccentricity:    0.0005384
Arg of perigee:    86.4129 deg
Mean anomaly:     273.7520 deg
Mean motion:   15.03007879 rev/day
Decay rate:    8.3100E-006 rev/day^2
Epoch rev:           63625
Checksum:              326

Satellite: EUTELSAT 2-F3
Catalog number: 21803
Epoch time:      103119.93430734
Element set:     548 
Inclination:        2.7733 deg
RA of node:        88.3352 deg
Eccentricity:    0.0004797
Arg of perigee:   282.2046 deg
Mean anomaly:     204.9307 deg
Mean motion:    1.00274242 rev/day
Decay rate:    1.3300E-006 rev/day^2
Epoch rev:            3770
Checksum:              272

Satellite: INMARSAT 2-F3
Catalog number: 21814
Epoch time:      103120.34760192
Element set:     656 
Inclination:        1.8890 deg
RA of node:        60.2800 deg
Eccentricity:    0.0003444
Arg of perigee:   354.4650 deg
Mean anomaly:     146.2878 deg
Mean motion:    1.00275557 rev/day
Decay rate:    1.1500E-006 rev/day^2
Epoch rev:            4160
Checksum:              262

Satellite: INMARSAT 2-F4
Catalog number: 21940
Epoch time:      103113.66465124
Element set:     589 
Inclination:        2.4133 deg
RA of node:        21.7241 deg
Eccentricity:    0.0002038
Arg of perigee:     3.1438 deg
Mean anomaly:     174.7041 deg
Mean motion:    1.00270002 rev/day
Decay rate:   -3.6799E-006 rev/day^2
Epoch rev:            4032
Checksum:              244

Satellite: EUTELSAT 2-F4
Catalog number: 22028
Epoch time:      103120.51285543
Element set:     343 
Inclination:        1.8928 deg
RA of node:        91.5333 deg
Eccentricity:    0.0006310
Arg of perigee:   285.2995 deg
Mean anomaly:      13.4888 deg
Mean motion:    1.00271727 rev/day
Decay rate:   -9.4000E-007 rev/day^2
Epoch rev:            3248
Checksum:              279

Satellite: KO-23
Catalog number: 22077
Epoch time:      103119.92554031
Element set:     174 
Inclination:       66.0896 deg
RA of node:       338.3920 deg
Eccentricity:    0.0015481
Arg of perigee:   258.0088 deg
Mean anomaly:     101.9196 deg
Mean motion:   12.86411022 rev/day
Decay rate:   -3.7000E-007 rev/day^2
Epoch rev:           50335
Checksum:              288

Satellite: ASTRA 1C
Catalog number: 22653
Epoch time:      103108.00000000
Element set:     796 
Inclination:        0.0122 deg
RA of node:       319.8851 deg
Eccentricity:    0.0002995
Arg of perigee:    65.1991 deg
Mean anomaly:     199.7728 deg
Mean motion:    1.00273184 rev/day
Decay rate:    1.1399E-006 rev/day^2
Epoch rev:            3147
Checksum:              271

Satellite: MET-2/21
Catalog number: 22782
Epoch time:      103119.82906180
Element set:     581 
Inclination:       82.5497 deg
RA of node:       159.1892 deg
Eccentricity:    0.0023336
Arg of perigee:   146.2826 deg
Mean anomaly:     213.9865 deg
Mean motion:   13.83539446 rev/day
Decay rate:    2.9299E-006 rev/day^2
Epoch rev:           48780
Checksum:              455

Satellite: AO-27
Catalog number: 22825
Epoch time:      103120.54424174
Element set:     544 
Inclination:       98.2663 deg
RA of node:       146.6003 deg
Eccentricity:    0.0009576
Arg of perigee:    51.1846 deg
Mean anomaly:     309.0202 deg
Mean motion:   14.28968789 rev/day
Decay rate:    1.7800E-006 rev/day^2
Epoch rev:           50001
Checksum:              300

Satellite: IO-26
Catalog number: 22826
Epoch time:      103119.58325635
Element set:     346 
Inclination:       98.2692 deg
RA of node:       146.8356 deg
Eccentricity:    0.0010075
Arg of perigee:    53.0487 deg
Mean anomaly:     307.1615 deg
Mean motion:   14.29193842 rev/day
Decay rate:    1.9399E-006 rev/day^2
Epoch rev:           49992
Checksum:              346

Satellite: KO-25
Catalog number: 22828
Epoch time:      103120.52684374
Element set:     484 
Inclination:       98.2632 deg
RA of node:       147.9939 deg
Eccentricity:    0.0010858
Arg of perigee:    30.5683 deg
Mean anomaly:     329.6148 deg
Mean motion:   14.29532532 rev/day
Decay rate:    1.8599E-006 rev/day^2
Epoch rev:           46826
Checksum:              351

Satellite: EYESAT A
Catalog number: 22829
Epoch time:      103120.10292324
Element set:     510 
Inclination:       98.2654 deg
RA of node:       148.2355 deg
Eccentricity:    0.0010837
Arg of perigee:    32.0870 deg
Mean anomaly:     328.0969 deg
Mean motion:   14.29805286 rev/day
Decay rate:    2.7500E-006 rev/day^2
Epoch rev:           50013
Checksum:              278

Satellite: METEOSAT 6
Catalog number: 22912
Epoch time:      103110.98704862
Element set:     766 
Inclination:        2.8246 deg
RA of node:        82.1213 deg
Eccentricity:    0.0002856
Arg of perigee:   322.3450 deg
Mean anomaly:     169.6545 deg
Mean motion:    1.00284576 rev/day
Decay rate:    5.9000E-007 rev/day^2
Epoch rev:            3291
Checksum:              283

Satellite: GOES 8
Catalog number: 23051
Epoch time:      103119.14247816
Element set:     709 
Inclination:        0.4698 deg
RA of node:        99.3755 deg
Eccentricity:    0.0005405
Arg of perigee:   340.8533 deg
Mean anomaly:     111.4513 deg
Mean motion:    1.00254588 rev/day
Decay rate:   -2.4399E-006 rev/day^2
Epoch rev:            4050
Checksum:              288

Satellite: ASTRA 1D
Catalog number: 23331
Epoch time:      103119.86243993
Element set:     839 
Inclination:        0.0644 deg
RA of node:       163.8670 deg
Eccentricity:    0.0003141
Arg of perigee:   231.0814 deg
Mean anomaly:     157.1258 deg
Mean motion:    1.00275041 rev/day
Decay rate:    1.4099E-006 rev/day^2
Epoch rev:            3157
Checksum:              267

Satellite: RS-15
Catalog number: 23439
Epoch time:      103119.80376363
Element set:     699 
Inclination:       64.8132 deg
RA of node:       287.9083 deg
Eccentricity:    0.0146412
Arg of perigee:   101.4666 deg
Mean anomaly:     260.2742 deg
Mean motion:   11.27548658 rev/day
Decay rate:   -4.1000E-007 rev/day^2
Epoch rev:           34351
Checksum:              311

Satellite: NOAA-14
Catalog number: 23455
Epoch time:      103120.55225858
Element set:     611 
Inclination:       99.1823 deg
RA of node:       140.9825 deg
Eccentricity:    0.0009868
Arg of perigee:    35.5223 deg
Mean anomaly:     324.6607 deg
Mean motion:   14.13324739 rev/day
Decay rate:    1.5900E-006 rev/day^2
Epoch rev:           42950
Checksum:              413

Satellite: HIMAWARI 5 (GM
Catalog number: 23522
Epoch time:      103118.12340185
Element set:     207 
Inclination:        1.9723 deg
RA of node:        83.3423 deg
Eccentricity:    0.0000923
Arg of perigee:   322.0280 deg
Mean anomaly:     354.9455 deg
Mean motion:    1.00274918 rev/day
Decay rate:   -2.8300E-006 rev/day^2
Epoch rev:            2957
Checksum:              382

